TimeCST,TemperatureF,Dew PointF,Humidity,Sea Level PressureIn,VisibilityMPH,Wind Direction,Wind SpeedMPH,Gust SpeedMPH,PrecipitationIn,Events,Conditions,WindDirDegrees,DateUTC
12:53 AM,9.0,1.0,70,30.60,10.0,SSE,13.8,-,N/A,,Clear,160,2013-11-24 06:53:00
1:53 AM,9.0,1.0,70,30.55,10.0,SSE,15.0,19.6,N/A,,Clear,160,2013-11-24 07:53:00
2:53 AM,10.0,1.9,70,30.50,10.0,SSE,13.8,-,N/A,,Clear,160,2013-11-24 08:53:00
3:53 AM,10.9,1.9,67,30.44,10.0,SSE,16.1,23.0,N/A,,Clear,160,2013-11-24 09:53:00
4:53 AM,10.9,1.9,67,30.40,10.0,SSE,12.7,24.2,N/A,,Clear,160,2013-11-24 10:53:00
5:53 AM,12.0,3.0,67,30.35,10.0,SSE,17.3,25.3,N/A,,Clear,160,2013-11-24 11:53:00
6:53 AM,12.0,3.9,70,30.32,10.0,South,17.3,25.3,N/A,,Clear,170,2013-11-24 12:53:00
7:53 AM,12.9,3.9,67,30.26,10.0,SSE,18.4,27.6,N/A,,Clear,160,2013-11-24 13:53:00
8:53 AM,15.1,6.1,68,30.21,10.0,SSE,20.7,29.9,N/A,,Clear,160,2013-11-24 14:53:00
9:53 AM,19.0,9.0,65,30.15,10.0,South,24.2,29.9,N/A,,Clear,170,2013-11-24 15:53:00
10:53 AM,25.0,14.0,63,30.09,10.0,South,25.3,35.7,N/A,,Clear,170,2013-11-24 16:53:00
11:53 AM,28.9,18.0,64,30.02,10.0,South,25.3,31.1,N/A,,Clear,180,2013-11-24 17:53:00
12:53 PM,34.0,21.0,59,29.99,10.0,South,18.4,25.3,N/A,,Clear,180,2013-11-24 18:53:00
1:53 PM,39.0,21.0,49,29.94,10.0,SSW,20.7,27.6,N/A,,Clear,200,2013-11-24 19:53:00
2:53 PM,39.0,21.9,50,29.91,10.0,South,16.1,-,N/A,,Clear,190,2013-11-24 20:53:00
3:53 PM,39.0,23.0,53,29.88,10.0,South,12.7,-,N/A,,Mostly Cloudy,190,2013-11-24 21:53:00
4:53 PM,37.9,24.1,57,29.88,10.0,South,9.2,-,N/A,,Overcast,180,2013-11-24 22:53:00
5:53 PM,41.0,24.1,51,29.89,10.0,SW,9.2,-,N/A,,Overcast,230,2013-11-24 23:53:00
6:53 PM,42.1,25.0,51,29.86,10.0,SW,10.4,-,N/A,,Overcast,220,2013-11-25 00:53:00
7:53 PM,41.0,27.0,57,29.86,10.0,WSW,10.4,-,0.00,,Overcast,240,2013-11-25 01:53:00
8:53 PM,39.0,27.0,62,29.84,10.0,WSW,11.5,-,N/A,,Mostly Cloudy,250,2013-11-25 02:53:00
9:53 PM,37.0,26.1,65,29.84,10.0,WSW,11.5,-,N/A,,Clear,250,2013-11-25 03:53:00
10:53 PM,35.1,26.1,70,29.85,10.0,West,11.5,-,N/A,,Clear,260,2013-11-25 04:53:00
11:53 PM,34.0,26.1,73,29.85,10.0,West,11.5,-,N/A,,Clear,260,2013-11-25 05:53:00